Regional Weather Roundup
Issued by NWS

Home | Current Version | Previous Version | Graphics & Text | Print | Product List | Glossary On
Versions: 1 2 3 4 5 6 7 8 9 10 11 12 13 14 15 16 17 18 19 20 21 22 23 24 25 26 27 28 29 30 31 32 33 34 35 36 37 38 39 40 41 42 43 44 45 46 47 48 49 50
000
ASUS45 KSLC 260010
RWRUT

UTAH REGIONAL WEATHER ROUNDUP
NATIONAL WEATHER SERVICE SALT LAKE CITY UT
600 PM MDT TUE APR 25 2017

UTZ001>011-023>025-260100-

NORTHERN UTAH

CITY           SKY/WX    TMP DP  RH WIND       PRES   REMARKS
BRIGHAM CITY   CLOUDY    51  32  47 CALM      29.88S
HILL AFB       CLOUDY    49  32  50 NW9       29.89R
LOGAN          CLOUDY    49  35  58 E7        29.88R
OGDEN          CLOUDY    49  33  54 N8        29.88R
SALT LAKE CITY PTSUNNY   51  36  56 NW12      29.89R
TOOELE VALLEY  PTSUNNY   50  36  57 N5        29.91R
WENDOVER       SUNNY     57  23  26 NW16G22   29.89S
HEBER CITY     CLOUDY    46  28  49 NW14G20   29.86R
WEST JORDAN    CLOUDY    50  42  72 NW8       29.91R

$$

UTZ011>015-024>027-260100-

CENTRAL/NORTHEAST UTAH

CITY           SKY/WX    TMP DP  RH WIND       PRES   REMARKS
PROVO AIRPORT  MOSUNNY   49  35  58 NW17      29.91R
MOAB/CANYONLAN MOSUNNY   60  24  25 N16G23    29.72R
DELTA          PTSUNNY   54  25  32 NW15G25   29.90R
PRICE          SUNNY     48  25  40 NW15G26   29.80R
ROOSEVELT      CLOUDY    55  28  35 SW13G23   29.73S
VERNAL         CLOUDY    52  31  44 SW3       29.73R

$$

UTZ013>016-019>022-027-260100-

SOUTHERN UTAH

CITY           SKY/WX    TMP DP  RH WIND       PRES   REMARKS
BRYCE CANYON   PTSUNNY   41  25  53 N15       29.90R
CEDAR CITY     SUNNY     52  21  29 N16G28    29.88F
MILFORD        MOSUNNY   57  19  22 NW14G24   29.87R
ST GEORGE      MOCLDY    68  24  19 NE17G29   29.81R
HANKSVILLE     PTSUNNY   63  19  19 NW21G29   29.75S
BLANDING       PTSUNNY   52  21  30 N17G30    29.82R

$$

REGIONAL REPORTS     COLORADO/ARIZONA

CITY           SKY/WX    TMP DP  RH WIND       PRES   REMARKS
CRAIG, CO      CLOUDY    40  34  79 SW12      29.76R WCI  33
GRAND JUNCTION CLOUDY    47  37  68 W5        29.76S
RIFLE, CO      MOSUNNY   51  28  41 W9        29.74R
MONTROSE, CO   PTSUNNY   47  31  53 NE14      29.76R
CORTEZ, CO     PTSUNNY   51  29  42 N17G29    29.74R
COLORADO CITY    N/A     61  19  20 N21G29    29.88R
PAGE, AZ       MOSUNNY   63  21  20 NW20G32   29.76R
GRAND CANYON   MOSUNNY   53  17  24 NW15G31   29.84R
KINGMAN, AZ    SUNNY     71  20  14 N20G38    29.80F
FLAGSTAFF, AZ  SUNNY     54  10  17 W12G25    29.82S

$$

REGIONAL REPORTS    NEVADA/IDAHO/WYOMING

CITY           SKY/WX    TMP DP  RH WIND       PRES   REMARKS
LAS VEGAS, NV  MOSUNNY   79  15   9 N22G28    29.74S
ELY, NY        SUNNY     49  19  30 MISG      29.93S
ELKO, NV       PTSUNNY   51  26  37 W10       29.94F
POCATELLO, ID  CLOUDY    54  33  45 W24G31    29.85S
BURLEY, ID     SUNNY     54  28  36 W18G28    29.85F
FORT BRIDGER,  MOCLDY    46  31  55 NW22G30   29.86R
EVANSTON, WY   CLOUDY    39  29  67 NW18      29.87R WCI  30
ROCK SPRINGS,  CLOUDY    36  32  85 CALM      29.81S
KEMMERER, WY     N/A     41  32  70 W23G30    29.83R

$$



USA.gov is the U.S. government's official web portal to all federal, state and local government web resources and services.